Vorticity
7 6 9 11 10 10 11 10 9 9 10 12 14 14 14 14 12 11 8 6 5 4 3 4 6 8 11 13 14 13 12 10 11 11 11 11 11 12 13 16 18 20 18 13 10 9 7 4 5 13 19 16 17 22 19 16 16 11 7 7 9 9 9
7 9 12 10 7 9 12 11 10 11 12 15 16 15 14 13 10 9 7 6 5 2 2 6 8 10 12 14 15 13 12 11 11 12 12 13 14 15 16 17 17 17 17 13 11 10 10 8 5 6 11 13 17 23 24 22 21 16 10 8 8 9 8
9 11 10 6 6 11 14 11 11 13 14 16 17 15 13 11 9 8 6 3 1 1 4 8 9 11 14 15 13 12 12 12 12 14 16 16 16 16 17 17 16 14 15 17 14 12 14 15 12 8 4 -0 -1 8 19 27 26 17 8 4 3 4 6
8 8 6 5 9 14 13 11 12 14 15 16 15 13 11 9 8 7 5 3 3 5 8 11 13 17 17 14 11 11 12 14 14 16 17 16 15 17 17 18 17 15 16 19 17 12 11 12 13 15 13 5 1 -1 1 15 29 25 14 9 6 6 5
6 6 6 8 13 14 13 12 13 14 14 15 14 11 9 8 7 6 5 6 7 9 12 16 18 17 13 9 8 11 16 16 14 14 17 17 18 20 19 17 16 14 13 17 19 15 13 13 12 13 12 12 17 12 1 9 25 22 11 8 7 5 6
6 6 8 11 14 13 12 12 13 13 14 13 10 8 7 6 5 6 8 10 12 14 18 20 17 13 9 7 11 16 17 14 13 17 19 19 19 20 20 18 17 16 16 17 15 11 12 16 13 11 12 14 17 14 8 15 21 12 4 3 3 2 3
6 7 10 12 12 11 12 11 10 9 8 6 5 6 7 7 8 11 14 17 18 18 20 17 12 8 6 8 15 17 13 10 16 21 19 17 18 19 20 20 17 17 19 18 12 6 8 12 13 14 16 19 18 8 3 12 18 12 6 5 7 9 10
6 9 12 13 12 11 9 8 8 9 10 11 11 11 11 13 16 18 19 19 18 17 15 12 10 8 6 11 16 12 10 15 21 20 16 14 15 15 17 20 19 16 17 20 18 14 10 7 9 12 12 17 22 15 6 7 12 10 7 7 11 13 12
8 13 14 12 10 9 9 11 14 15 17 17 16 17 17 18 19 18 17 15 14 14 13 11 11 8 9 15 14 8 13 23 21 16 13 11 11 10 11 16 19 17 15 15 15 16 14 10 9 9 9 10 14 12 10 9 11 13 10 7 8 10 10
13 16 15 14 14 15 17 19 19 19 21 21 20 21 20 18 17 16 14 13 13 13 12 13 14 12 13 17 12 10 20 26 19 12 11 10 10 10 9 12 16 19 20 17 11 9 11 11 9 8 10 10 9 9 10 10 10 16 17 13 8 5 3
16 16 16 17 17 18 19 19 20 24 25 23 21 19 16 16 16 15 13 12 12 11 10 8 9 12 17 17 10 13 24 24 15 10 9 10 12 12 11 10 13 18 22 20 14 9 9 8 5 4 6 8 9 9 9 9 10 11 12 14 14 11 8
16 16 17 15 14 15 16 16 19 24 23 21 19 17 17 19 17 13 12 8 4 11 17 12 8 13 18 14 9 16 25 22 13 8 8 10 13 15 14 12 13 17 22 21 15 9 8 9 9 8 6 6 7 6 4 8 14 14 8 5 9 12 13
16 16 16 13 13 15 15 14 19 21 20 21 19 14 14 15 12 11 10 2 -2 9 19 16 10 12 15 11 9 18 26 21 11 6 8 12 15 16 15 14 16 19 20 20 15 9 7 9 12 12 9 6 6 5 4 6 11 15 13 8 6 7 7
15 14 12 9 10 13 14 17 19 18 21 22 14 5 5 7 9 10 4 -1 3 13 19 19 14 11 14 14 13 20 25 19 9 7 10 13 14 14 14 14 17 20 19 16 14 11 8 7 9 13 14 11 7 6 7 7 7 8 10 10 10 10 11
13 11 9 10 13 17 20 20 15 17 28 23 2 -3 4 3 2 4 2 2 11 17 21 24 21 19 21 19 15 20 23 15 8 8 10 11 11 12 13 13 15 17 17 15 13 12 10 7 7 11 14 15 12 9 8 6 5 6 7 7 9 10 10
12 12 13 14 17 21 21 16 13 20 26 10 -10 -4 8 2 -4 3 9 13 17 18 20 23 22 23 22 17 16 22 20 11 8 9 10 10 9 9 10 12 13 15 17 16 14 11 9 9 10 11 12 13 14 13 12 12 12 12 12 12 12 12 13
13 17 18 13 14 20 19 14 15 16 9 -3 -4 7 11 4 4 11 16 17 15 17 22 24 22 19 16 17 21 22 15 9 8 9 9 10 9 8 9 10 10 11 14 17 18 17 13 12 11 10 10 11 11 12 13 14 14 12 11 11 11 10 11
18 23 17 4 6 19 20 15 14 9 3 8 18 20 14 11 13 15 16 15 14 18 25 26 20 13 15 22 23 18 12 10 9 9 9 9 9 8 8 9 9 9 9 11 14 17 18 18 16 14 13 12 12 13 13 13 14 14 14 14 14 14 14
17 16 9 2 9 21 20 14 12 10 12 20 23 19 16 13 11 12 14 14 14 20 25 23 15 9 13 22 20 13 10 10 9 10 9 9 10 9 9 9 10 9 9 9 9 11 12 14 15 16 16 15 14 14 15 15 14 14 15 15 15 15 15
12 12 11 14 20 21 16 15 16 16 18 19 14 10 10 8 8 13 14 12 14 19 22 21 15 9 9 16 17 14 11 10 11 11 9 8 9 9 9 10 10 9 9 9 9 10 10 10 11 11 12 12 12 12 11 11 10 10 10 10 10 11 11
14 15 17 20 21 18 16 17 17 16 15 12 9 6 5 8 11 13 12 10 12 15 17 18 16 11 8 12 15 13 11 11 12 10 8 9 9 9 10 10 9 9 9 8 8 8 8 9 9 9 9 9 9 9 9 9 8 8 8 8 7 7 7
15 16 19 22 21 19 17 16 15 14 13 12 10 6 4 10 14 12 10 10 9 11 13 14 16 15 11 11 13 12 11 11 11 9 8 8 8 9 10 9 8 8 8 8 8 8 7 6 5 5 6 6 6 6 6 6 6 5 5 5 5 5 5
13 16 19 22 21 17 15 14 14 13 12 10 10 9 8 12 14 12 10 8 7 9 10 10 12 14 12 10 10 11 11 10 10 9 8 7 7 8 8 9 9 8 7 7 6 5 3 3 2 3 4 4 5 5 5 5 5 5 6 5 5 5 5
12 14 16 17 16 14 14 15 15 14 12 10 11 12 11 11 11 11 11 10 8 8 9 9 9 10 11 11 10 9 10 11 10 9 8 7 7 7 7 8 8 7 7 6 5 4 2 1 2 3 5 5 6 6 5 5 5 5 5 6 6 6 5
11 12 14 14 12 12 13 13 12 11 10 9 10 12 11 8 7 8 10 11 10 7 7 9 9 8 11 13 11 9 8 8 9 9 9 8 8 7 7 7 7 7 7 6 5 5 4 3 4 4 5 6 6 6 6 6 6 6 6 5 5 6 5
13 14 14 12 10 10 10 9 9 8 8 8 9 11 11 9 8 7 6 8 10 10 9 8 9 9 10 11 12 11 8 6 6 6 6 6 6 5 5 5 6 7 8 9 9 9 8 7 8 8 7 6 6 5 5 5 5 5 6 6 6 6 7
15 14 13 12 11 10 10 10 10 10 11 11 12 13 13 13 14 14 11 9 8 9 10 9 9 10 10 9 10 10 9 8 6 5 5 5 5 5 5 5 5 6 7 7 7 7 7 7 8 8 8 7 7 6 5 5 5 6 6 6 6 6 7
13 11 11 11 11 11 11 11 10 11 13 14 14 15 13 12 14 16 17 16 12 10 10 9 9 10 10 9 8 8 9 10 8 7 7 7 7 7 7 6 6 6 6 7 7 7 8 9 9 10 10 10 9 8 7 7 7 6 6 6 7 8 8
10 10 10 11 12 13 12 12 11 10 11 12 11 9 8 8 9 10 12 14 14 12 11 10 10 9 9 9 8 7 6 6 5 6 7 7 7 7 7 7 9 9 8 8 9 9 10 11 11 12 11 11 10 9 9 9 9 9 10 10 10 11 11
12 13 12 12 12 12 12 12 11 10 9 8 8 7 8 8 8 8 9 10 10 11 11 12 12 12 10 9 9 7 6 5 5 7 8 8 8 9 10 11 10 9 9 8 8 9 10 11 11 11 10 10 9 8 9 10 11 11 11 11 12 12 11
12 13 14 13 11 9 8 7 6 6 6 6 6 7 8 9 9 9 9 8 8 9 10 10 12 13 12 11 9 7 6 7 6 5 6 6 8 11 15 16 14 12 11 10 10 11 12 11 11 10 10 9 9 9 9 9 8 8 9 9 9 9 9
8 10 11 11 9 7 4 2 2 2 3 3 4 5 6 7 9 9 8 7 7 9 10 10 10 11 12 12 11 9 8 8 7 6 6 5 4 4 5 6 7 8 9 9 10 10 10 9 9 9 8 7 6 4 4 3 3 5 7 8 9 10 10
5 7 8 9 8 6 4 2 1 1 1 2 4 5 6 7 8 8 7 8 9 11 11 11 11 10 10 11 11 11 10 8 5 4 3 2 2 2 2 1 1 2 3 3 4 6 8 9 8 6 6 4 3 2 2 2 3 4 5 7 9 9 8
3 5 8 9 8 7 7 5 5 5 5 6 7 8 9 10 10 11 11 12 13 13 12 12 12 11 10 9 9 9 8 5 3 2 2 3 4 5 4 3 3 3 3 0 -1 0 4 6 6 5 5 4 3 3 4 4 4 4 4 6 7 7 7
4 7 9 10 10 9 8 8 8 8 7 8 9 9 10 11 12 13 15 16 15 14 12 12 12 11 10 9 8 7 6 7 7 8 8 8 8 7 7 7 6 6 5 2 1 1 3 5 7 8 7 7 6 6 6 5 6 7 8 9 9 9 9
10 11 12 11 11 10 9 8 8 8 8 9 9 10 11 13 14 15 17 17 17 16 15 14 14 13 13 12 10 8 6 5 7 8 8 8 9 11 12 12 9 7 5 5 6 7 7 8 9 9 7 7 7 6 6 6 7 8 8 8 8 8 8
Height
5633 5631 5628 5626 5624 5622 5619 5617 5614 5612 5610 5608 5606 5604 5602 5600 5599 5598 5596 5595 5593 5592 5590 5589 5587 5586 5584 5582 5580 5579 5577 5575 5573 5572 5571 5570 5569 5568 5567 5567 5568 5568 5569 5569 5568 5568 5569 5570 5571 5571 5571 5571 5571 5573 5574 5576 5578 5579 5580 5581 5582 5583 5584
5626 5624 5621 5619 5617 5614 5612 5609 5607 5605 5603 5600 5598 5597 5595 5593 5592 5590 5589 5587 5585 5584 5582 5581 5579 5577 5576 5574 5572 5570 5568 5566 5565 5564 5563 5562 5561 5560 5559 5559 5559 5560 5560 5559 5559 5560 5561 5562 5563 5564 5564 5564 5565 5565 5566 5568 5570 5572 5573 5574 5575 5576 5577
5619 5616 5614 5611 5609 5606 5604 5602 5599 5597 5595 5593 5591 5589 5587 5586 5584 5582 5581 5579 5577 5575 5574 5572 5570 5569 5567 5565 5563 5562 5560 5558 5557 5555 5555 5553 5553 5552 5551 5551 5551 5551 5551 5551 5551 5552 5553 5554 5555 5556 5557 5557 5558 5559 5560 5561 5563 5564 5566 5567 5568 5569 5570
5611 5609 5606 5604 5601 5598 5596 5594 5592 5589 5587 5585 5583 5581 5580 5578 5576 5574 5573 5571 5569 5567 5565 5563 5562 5560 5558 5556 5554 5553 5551 5550 5549 5547 5546 5545 5545 5545 5544 5543 5543 5543 5543 5543 5544 5544 5545 5546 5548 5549 5550 5550 5551 5552 5553 5554 5555 5557 5558 5559 5561 5562 5563
5604 5601 5598 5596 5593 5591 5589 5586 5584 5581 5579 5577 5575 5573 5572 5570 5568 5566 5564 5562 5560 5559 5557 5555 5553 5551 5549 5547 5546 5544 5543 5542 5541 5539 5538 5537 5537 5536 5536 5536 5535 5535 5535 5535 5536 5537 5538 5539 5540 5541 5542 5543 5544 5546 5546 5547 5548 5550 5551 5553 5554 5555 5556
5596 5593 5591 5588 5586 5583 5581 5578 5576 5574 5571 5569 5567 5565 5563 5561 5559 5557 5555 5553 5552 5550 5548 5546 5544 5542 5540 5539 5537 5536 5535 5534 5533 5532 5531 5530 5529 5529 5528 5528 5527 5527 5528 5529 5529 5530 5531 5532 5533 5534 5535 5536 5537 5539 5540 5540 5541 5543 5544 5545 5546 5547 5548
5589 5586 5583 5581 5578 5576 5573 5571 5568 5566 5563 5561 5559 5556 5554 5552 5550 5548 5546 5544 5543 5541 5539 5537 5535 5534 5532 5531 5529 5528 5527 5526 5525 5524 5523 5523 5522 5522 5521 5521 5520 5520 5521 5522 5522 5523 5524 5525 5526 5527 5528 5529 5530 5531 5533 5534 5535 5536 5537 5537 5538 5539 5540
5582 5579 5576 5573 5571 5568 5565 5563 5560 5558 5555 5552 5550 5547 5545 5543 5540 5539 5537 5535 5534 5532 5530 5529 5527 5526 5524 5523 5522 5521 5520 5519 5518 5517 5516 5516 5515 5515 5514 5514 5514 5514 5514 5515 5515 5516 5517 5518 5519 5520 5521 5522 5524 5525 5526 5527 5527 5528 5529 5530 5531 5532 5533
5574 5571 5568 5565 5563 5560 5557 5554 5552 5549 5547 5544 5541 5538 5536 5534 5532 5530 5528 5527 5525 5524 5522 5521 5519 5518 5517 5516 5515 5514 5513 5512 5511 5510 5510 5509 5509 5508 5508 5507 5507 5507 5508 5508 5509 5510 5511 5512 5513 5514 5514 5516 5517 5518 5519 5520 5521 5522 5522 5522 5523 5525 5526
5566 5562 5560 5557 5554 5551 5549 5546 5543 5541 5538 5535 5532 5530 5528 5525 5524 5522 5520 5519 5517 5516 5514 5513 5512 5511 5509 5508 5507 5506 5505 5504 5504 5504 5503 5503 5502 5502 5501 5501 5501 5501 5501 5501 5502 5503 5504 5505 5506 5507 5508 5509 5510 5511 5512 5513 5514 5515 5515 5516 5516 5517 5518
5557 5554 5551 5548 5545 5543 5540 5537 5535 5532 5530 5527 5524 5522 5520 5518 5516 5514 5512 5511 5509 5508 5507 5506 5505 5503 5502 5501 5500 5499 5498 5497 5497 5497 5497 5497 5496 5495 5495 5495 5494 5494 5494 5495 5496 5496 5497 5499 5499 5500 5501 5502 5503 5504 5505 5506 5507 5508 5508 5509 5510 5510 5511
5548 5545 5542 5539 5537 5534 5532 5529 5526 5524 5522 5519 5517 5514 5512 5510 5508 5507 5505 5504 5503 5501 5500 5498 5497 5496 5494 5493 5492 5491 5491 5490 5490 5490 5490 5490 5490 5489 5488 5488 5488 5488 5488 5488 5489 5490 5491 5492 5493 5494 5495 5495 5496 5497 5498 5499 5500 5500 5501 5502 5502 5503 5504
5538 5536 5533 5531 5528 5525 5523 5520 5518 5516 5514 5511 5509 5507 5505 5503 5501 5500 5498 5497 5496 5494 5492 5491 5489 5488 5487 5486 5485 5484 5484 5484 5484 5484 5484 5484 5483 5483 5482 5482 5482 5482 5482 5482 5483 5484 5485 5486 5486 5487 5488 5489 5490 5491 5491 5492 5493 5493 5494 5495 5496 5497 5497
5530 5527 5524 5522 5519 5517 5515 5512 5510 5508 5506 5504 5502 5500 5498 5496 5495 5493 5492 5490 5488 5486 5484 5483 5481 5480 5479 5478 5478 5477 5477 5477 5477 5478 5478 5477 5477 5477 5476 5476 5476 5476 5476 5476 5477 5478 5479 5479 5480 5481 5481 5482 5483 5484 5484 5485 5486 5487 5487 5488 5489 5489 5489
5521 5519 5516 5514 5511 5509 5507 5504 5502 5501 5499 5497 5495 5494 5492 5490 5488 5487 5485 5482 5480 5478 5476 5475 5473 5472 5471 5471 5471 5470 5470 5471 5471 5471 5471 5471 5471 5471 5471 5470 5470 5470 5470 5471 5471 5472 5473 5473 5474 5474 5474 5475 5476 5476 5477 5478 5478 5479 5480 5481 5481 5481 5481
5513 5511 5508 5506 5504 5501 5499 5497 5495 5494 5492 5491 5489 5488 5486 5483 5481 5480 5478 5475 5473 5471 5469 5467 5466 5465 5464 5464 5464 5464 5464 5464 5465 5466 5466 5466 5465 5465 5465 5465 5465 5465 5465 5465 5466 5466 5467 5467 5467 5467 5468 5468 5469 5469 5470 5470 5470 5471 5472 5473 5473 5473 5473
5505 5502 5500 5498 5496 5493 5492 5490 5488 5487 5486 5484 5482 5480 5478 5476 5474 5473 5470 5468 5466 5464 5462 5460 5459 5458 5458 5457 5457 5457 5458 5459 5459 5460 5460 5460 5460 5460 5460 5460 5459 5459 5459 5460 5460 5460 5461 5461 5461 5461 5461 5461 5462 5462 5462 5463 5463 5463 5464 5464 5465 5465 5466
5497 5495 5492 5490 5488 5486 5484 5482 5481 5479 5478 5475 5474 5473 5471 5469 5468 5466 5463 5461 5459 5457 5456 5454 5453 5453 5452 5451 5451 5452 5452 5453 5454 5454 5454 5454 5455 5455 5454 5454 5454 5454 5454 5454 5454 5454 5455 5455 5455 5455 5455 5455 5455 5456 5456 5456 5456 5456 5456 5457 5457 5458 5458
5489 5487 5485 5482 5480 5478 5477 5475 5473 5471 5469 5467 5467 5466 5464 5462 5461 5459 5457 5455 5453 5451 5450 5448 5448 5447 5446 5446 5446 5446 5447 5448 5448 5448 5449 5449 5449 5449 5449 5449 5449 5449 5449 5449 5449 5449 5449 5449 5449 5449 5449 5449 5449 5450 5450 5449 5449 5449 5449 5449 5449 5450 5450
5481 5479 5476 5474 5472 5470 5469 5467 5465 5463 5462 5461 5460 5458 5457 5455 5454 5452 5450 5448 5447 5445 5444 5443 5442 5442 5441 5441 5441 5441 5441 5442 5442 5443 5443 5443 5444 5443 5443 5443 5443 5443 5443 5443 5444 5444 5444 5444 5443 5444 5444 5443 5444 5444 5443 5443 5443 5443 5443 5442 5442 5443 5443
5472 5470 5468 5466 5464 5462 5461 5460 5458 5457 5455 5454 5453 5451 5450 5448 5447 5445 5444 5442 5441 5439 5438 5437 5436 5436 5435 5435 5435 5435 5436 5436 5436 5437 5437 5437 5437 5437 5438 5438 5438 5438 5438 5438 5438 5438 5438 5438 5438 5438 5438 5438 5438 5438 5437 5437 5437 5436 5436 5436 5436 5436 5435
5465 5463 5461 5459 5457 5455 5454 5452 5451 5450 5449 5448 5447 5445 5443 5441 5440 5439 5437 5436 5435 5433 5432 5431 5430 5430 5430 5430 5429 5429 5429 5430 5430 5430 5430 5431 5431 5431 5431 5432 5432 5432 5432 5432 5432 5432 5432 5432 5431 5432 5432 5432 5432 5431 5431 5431 5430 5430 5430 5429 5429 5429 5428
5458 5456 5454 5452 5450 5448 5447 5445 5444 5443 5442 5441 5440 5438 5436 5435 5433 5432 5431 5430 5429 5427 5426 5425 5424 5424 5423 5423 5423 5423 5423 5423 5424 5424 5424 5424 5424 5424 5425 5425 5425 5426 5426 5425 5425 5425 5425 5425 5425 5425 5425 5425 5425 5424 5423 5423 5423 5423 5422 5422 5421 5421 5420
5451 5449 5447 5445 5443 5442 5440 5439 5438 5437 5435 5434 5433 5431 5429 5428 5427 5426 5425 5424 5422 5421 5420 5419 5418 5417 5417 5417 5417 5417 5417 5417 5417 5417 5417 5417 5417 5417 5418 5418 5418 5419 5419 5418 5418 5418 5418 5418 5418 5418 5418 5417 5417 5416 5416 5416 5415 5415 5414 5414 5413 5413 5411
5444 5442 5440 5439 5437 5436 5434 5433 5431 5430 5429 5427 5426 5424 5423 5422 5421 5419 5418 5417 5416 5415 5413 5413 5412 5411 5411 5411 5410 5411 5410 5410 5410 5410 5410 5410 5410 5410 5411 5411 5411 5411 5411 5410 5410 5410 5410 5410 5410 5410 5409 5409 5408 5408 5408 5408 5407 5407 5406 5406 5405 5404 5403
5437 5435 5433 5432 5430 5429 5428 5426 5425 5423 5422 5420 5419 5417 5416 5415 5414 5412 5411 5410 5409 5408 5407 5406 5405 5404 5404 5404 5404 5404 5404 5403 5403 5403 5403 5403 5403 5403 5403 5403 5403 5402 5402 5402 5401 5401 5401 5401 5401 5401 5400 5400 5400 5399 5399 5399 5399 5398 5398 5397 5396 5395 5393
5429 5428 5426 5424 5423 5422 5420 5419 5417 5416 5414 5412 5411 5410 5409 5407 5406 5405 5403 5403 5402 5401 5400 5399 5398 5397 5397 5397 5397 5397 5396 5396 5396 5396 5395 5395 5395 5394 5394 5394 5394 5394 5393 5393 5392 5392 5392 5392 5391 5391 5391 5391 5391 5390 5390 5390 5390 5389 5389 5388 5387 5386 5384
5422 5420 5419 5417 5416 5414 5413 5411 5410 5408 5406 5405 5404 5403 5401 5399 5398 5397 5396 5395 5394 5393 5392 5391 5390 5390 5390 5389 5389 5389 5388 5388 5388 5388 5387 5387 5386 5386 5386 5386 5386 5385 5385 5384 5383 5383 5383 5382 5382 5381 5381 5381 5381 5380 5381 5381 5380 5379 5379 5379 5378 5377 5375
5415 5413 5411 5409 5408 5406 5405 5404 5402 5400 5398 5397 5396 5395 5394 5392 5391 5389 5388 5387 5386 5385 5384 5383 5383 5382 5382 5381 5381 5380 5379 5379 5379 5379 5378 5378 5377 5377 5377 5377 5377 5376 5375 5375 5374 5373 5373 5372 5372 5371 5371 5370 5370 5370 5370 5370 5369 5369 5369 5369 5368 5367 5365
5408 5405 5403 5402 5400 5398 5397 5396 5394 5392 5391 5389 5388 5387 5386 5385 5383 5381 5380 5379 5378 5377 5376 5375 5375 5374 5374 5373 5372 5371 5370 5370 5370 5370 5369 5369 5368 5368 5368 5367 5367 5366 5365 5365 5364 5363 5362 5362 5361 5361 5360 5359 5359 5359 5360 5360 5359 5359 5358 5358 5358 5357 5356
5400 5398 5396 5394 5392 5391 5389 5387 5386 5384 5382 5381 5380 5379 5378 5376 5374 5373 5371 5370 5369 5368 5367 5367 5366 5365 5365 5364 5363 5362 5361 5361 5360 5360 5360 5360 5359 5359 5358 5358 5357 5356 5355 5355 5354 5353 5352 5352 5351 5350 5350 5349 5349 5349 5349 5349 5349 5349 5348 5348 5347 5347 5345
5391 5389 5387 5385 5384 5382 5380 5378 5377 5375 5373 5371 5370 5369 5368 5367 5365 5363 5361 5360 5359 5358 5358 5357 5356 5356 5355 5354 5353 5352 5352 5351 5351 5350 5350 5350 5350 5349 5349 5348 5346 5346 5346 5345 5345 5343 5343 5342 5341 5341 5340 5339 5339 5339 5339 5339 5339 5338 5338 5337 5337 5336 5334
5382 5380 5378 5376 5374 5372 5370 5368 5366 5364 5362 5361 5360 5359 5358 5356 5355 5353 5351 5350 5349 5349 5348 5347 5346 5345 5345 5344 5343 5342 5341 5341 5340 5340 5340 5340 5339 5339 5338 5337 5336 5336 5336 5335 5334 5333 5333 5332 5331 5330 5330 5329 5329 5328 5328 5328 5328 5327 5326 5326 5325 5324 5323
5372 5370 5368 5366 5363 5361 5359 5357 5355 5353 5351 5350 5348 5347 5347 5345 5344 5342 5341 5340 5339 5338 5337 5336 5335 5334 5334 5333 5332 5331 5330 5330 5329 5329 5329 5328 5328 5327 5327 5326 5326 5326 5325 5324 5323 5323 5322 5321 5320 5320 5320 5319 5319 5318 5318 5317 5316 5315 5315 5314 5314 5313 5312
5362 5359 5357 5354 5352 5350 5348 5346 5344 5342 5340 5338 5337 5336 5335 5334 5332 5331 5330 5329 5328 5327 5326 5325 5324 5323 5322 5321 5320 5320 5319 5319 5318 5318 5317 5317 5316 5316 5316 5315 5315 5314 5314 5313 5312 5312 5311 5310 5309 5309 5308 5308 5308 5307 5306 5305 5305 5303 5303 5302 5301 5301 5300
5350 5348 5345 5343 5341 5339 5337 5334 5332 5330 5328 5327 5325 5324 5323 5322 5320 5319 5318 5317 5316 5315 5314 5313 5312 5311 5310 5310 5309 5308 5308 5307 5306 5306 5306 5305 5305 5305 5304 5304 5303 5302 5302 5301 5301 5300 5300 5299 5298 5298 5297 5297 5297 5296 5295 5294 5293 5292 5291 5290 5289 5289 5288